Lid_Strength_Index
13 15 17 15 13 12 12 14 14 12 9 11 11 11 10 8 8 8 8 7 7 6 4 4 4 3 3 2 2 1 2 2 3 4 6 6 9 10 10 10 10 10 10 9
15 17 14 12 11 13 14 15 15 12 10 11 12 12 12 8 8 8 8 7 7 6 5 5 4 4 3 2 2 2 2 3 3 3 5 7 10 11 12 11 11 11 10 10
16 15 13 14 14 14 14 15 14 14 11 10 12 14 12 9 8 8 7 6 6 6 6 5 5 4 3 2 2 2 2 3 2 6 9 11 11 12 12 12 12 12 11 11
15 12 13 15 15 13 16 11 12 13 14 17 12 19 13 11 10 9 8 7 7 6 5 5 6 5 3 4 3 2 2 3 6 8 9 9 10 12 13 13 12 12 11 11
15 13 13 13 12 10 14 9 11 12 14 15 15 17 14 11 12 10 9 8 7 6 6 7 7 8 9 7 7 7 7 6 7 8 9 10 13 13 13 13 12 12 13 13
11 8 9 10 9 9 9 11 12 12 14 19 16 17 16 13 11 10 8 8 7 6 8 10 10 9 9 9 9 9 10 11 11 11 11 12 13 13 13 13 13 14 15 14
11 11 9 8 11 9 10 14 19 20 20 21 14 17 14 11 10 8 9 8 7 8 10 11 11 10 11 10 11 11 11 12 12 12 13 13 13 12 12 13 14 15 16 16
16 18 11 9 11 13 13 14 18 22 22 20 15 19 15 10 9 7 7 7 8 9 10 10 11 11 11 11 11 11 11 12 12 12 12 11 11 12 13 14 14 15 16 16
15 16 9 9 9 10 13 16 12 17 17 19 17 15 12 10 10 9 9 9 10 10 10 11 11 11 12 12 12 12 12 12 12 12 13 13 13 14 15 16 16 16 16 16
12 16 11 10 9 9 12 11 17 16 23 23 19 18 17 15 14 10 10 10 11 11 12 12 12 12 12 12 13 13 12 13 13 13 14 14 15 15 16 16 17 16 16 16
10 13 13 11 13 14 13 14 14 14 16 21 22 19 14 15 14 12 11 12 13 13 13 13 13 13 13 13 14 14 14 14 14 15 15 16 16 16 16 17 17 17 17 17
10 12 16 14 11 10 11 13 13 18 19 17 18 18 12 13 12 13 14 14 14 13 13 14 14 14 14 15 15 15 15 16 16 16 16 17 17 17 18 17 17 17 17 17
10 13 17 16 13 11 13 12 12 13 14 18 19 18 12 13 13 13 15 14 14 14 14 14 14 15 15 15 16 16 16 17 17 17 18 18 18 18 18 18 18 17 17 18
8 12 15 18 16 13 15 13 12 14 17 17 17 15 15 15 15 15 15 14 14 15 14 15 15 15 14 15 16 16 17 17 17 18 18 19 19 19 18 18 17 17 17 17
10 14 13 13 13 12 13 14 13 15 14 17 15 15 14 14 14 14 14 14 14 14 14 15 15 16 16 16 17 17 17 18 18 19 19 19 19 18 18 18 17 17 17 17
11 14 13 16 12 13 14 13 13 13 13 13 13 14 12 13 14 14 14 14 14 14 14 14 15 15 16 16 17 17 18 18 18 19 19 18 18 18 18 18 18 17 17 17
13 15 16 18 14 15 18 15 13 13 13 13 15 13 11 12 13 13 14 13 13 13 13 13 14 15 15 16 16 17 17 17 18 18 18 18 18 18 18 17 17 18 18 18
14 16 15 18 17 21 14 14 14 14 14 13 13 13 13 12 12 12 12 12 13 13 13 12 13 13 14 15 15 16 17 17 17 18 18 18 18 18 18 18 18 18 18 18
12 14 16 20 20 16 15 14 14 14 16 15 14 12 13 12 12 13 11 11 11 11 11 11 11 12 14 15 16 16 17 17 17 17 18 18 18 18 18 18 19 18 18 18
11 12 15 20 20 21 15 13 13 12 17 15 15 14 13 12 14 13 13 11 11 11 11 11 12 12 14 15 15 16 17 17 17 17 17 17 17 18 18 18 18 18 17 17
15 16 20 19 19 17 14 13 13 18 16 14 14 14 12 13 13 13 12 12 11 11 11 13 13 14 15 15 15 16 16 17 17 17 17 18 18 18 17 17 17 18 18 18
19 20 22 20 20 21 13 12 14 13 13 14 14 14 14 13 13 13 13 13 12 13 13 14 14 15 15 15 14 16 16 16 17 17 18 18 18 17 17 18 18 18 18 19
18 15 17 16 17 13 13 13 12 12 13 14 14 14 14 14 13 14 14 14 14 15 15 15 16 17 16 16 15 16 16 17 17 17 17 18 17 17 18 18 18 19 19 19
18 15 15 14 14 13 12 12 12 12 13 13 14 14 14 14 14 14 14 14 15 16 16 17 17 17 18 17 16 15 16 17 16 17 18 18 19 19 19 18 19 19 20 20
19 17 19 17 13 13 14 15 14 14 13 14 14 14 13 13 14 14 15 16 16 18 19 18 18 17 18 17 17 16 16 15 16 17 19 19 18 19 20 20 20 20 20 20
18 18 17 19 15 15 14 15 15 14 15 15 15 14 14 14 14 15 16 17 18 19 20 20 19 17 16 16 16 16 15 15 17 19 19 19 20 20 21 21 22 17 17 16